Francistown, Botswana

12:28 PM CAT on February 13, 2016 (GMT +0200)
Francistown

Weather History for FBFT - November, 2012

Change the Weather History Date:

Monday, November 19, 2012

  Actual Average Record
Temperature  
Mean Temperature 84 °F -  
Max Temperature 98 °F 85 °F 98 °F (2004)
Min Temperature 71 °F 65 °F 50 °F (2014)
Cooling Degree Days 20    
Growing Degree Days 34 (Base 50)    
Moisture  
Dew Point 59 °F    
Average Humidity 44    
Maximum Humidity 73    
Minimum Humidity 21    
Precipitation  
Precipitation 0.00 in - - ()
Sea Level Pressure  
Sea Level Pressure 30.01 in    
Wind  
Wind Speed 6 mph ()    
Max Wind Speed 10 mph    
Max Gust Speed -    
Visibility 6.2 miles    
Events      
Averages and records for this station are not official NWS values.
T = Trace of Precipitation, MM = Missing Value Source: Averaged Metar Reports

Daily Weather History Graph

Daily Weather History Graph

Search for Another Location

Airport or City:

Trip Planner

Search our weather history database for the weather conditions in past years. The results will help you decide how hot, cold, wet, or windy it might be!

Date:

Astronomy

Nov. 19, 2012 Rise Set
Actual Time 5:19 AM CAT 6:31 PM CAT
Civil Twilight 4:55 AM CAT 6:55 PM CAT
Nautical Twilight 4:27 AM CAT 7:23 PM CAT
Astronomical Twilight 3:58 AM CAT 7:53 PM CAT
Moon 10:48 AM CAT (11/19) 11:48 PM CAT (11/19)
Length of Visible Light 13h 59m
Length of Day
13h 11m
Waxing Crescent, 37% of the Moon is Illuminated
Nov 19
Waxing Crescent
Nov 20
First Quarter
Nov 28
Full
Dec 6
Last Quarter
Dec 13
New

Hourly Weather History & Observations

Time (CAT) Temp. Heat Index Dew Point Humidity Pressure Visibility Wind Dir Wind Speed Gust Speed Precip Events Conditions
12:00 AM 77.0 °F - 60.8 °F 57% 30.04 in - East 9.2 mph - N/A   Clear
1:00 AM 77.0 °F - 60.8 °F 57% 30.01 in - East 8.1 mph - N/A   Clear
2:00 AM 75.2 °F - 60.8 °F 61% 30.01 in - ENE 6.9 mph - N/A   Clear
3:00 AM 73.4 °F - 60.8 °F 65% 30.01 in - ESE 3.5 mph - N/A   Clear
4:00 AM 71.6 °F - 60.8 °F 69% 30.04 in - SSE 4.6 mph - N/A   Clear
5:00 AM 71.6 °F - 62.6 °F 73% 30.04 in - SE 8.1 mph - N/A   Clear
6:00 AM 71.6 °F - 62.6 °F 73% 30.06 in - SE 5.8 mph - N/A   Clear
7:00 AM 73.4 °F - 62.6 °F 69% 30.06 in - ENE 9.2 mph - N/A   Clear
8:00 AM 77.0 °F - 62.6 °F 61% 30.09 in - SE 8.1 mph - N/A   Clear
9:00 AM 78.8 °F - 59.0 °F 51% 30.09 in - NNE 10.4 mph - N/A   Clear
10:00 AM 84.2 °F 85.0 °F 62.6 °F 48% 30.06 in - East 9.2 mph - N/A   Clear
11:00 AM 89.6 °F 90.1 °F 62.6 °F 40% 30.06 in - SW 5.8 mph - N/A   Clear
12:00 PM 93.2 °F 92.6 °F 59.0 °F 32% 30.04 in 6.2 mi North 8.1 mph - N/A   Partly Cloudy
2:00 PM 95 °F - 60 °F 21%  in 6 mi SSE 2.3 mph - -   Mostly Cloudy
2:00 PM 95.0 °F 94.4 °F 59.0 °F 30% 29.98 in 6.2 mi Variable 2.3 mph - N/A   Partly Cloudy
3:00 PM 96.8 °F 96.2 °F 59.0 °F 28% 29.95 in 6.2 mi East 4.6 mph - N/A   Partly Cloudy
4:00 PM 96.8 °F 94.4 °F 53.6 °F 23% 29.95 in 6.2 mi WSW 5.8 mph - N/A   Partly Cloudy
5:00 PM 96.8 °F 94.4 °F 53.6 °F 23% 29.95 in 6.2 mi SE 8.1 mph - N/A   Partly Cloudy
6:00 PM 95.0 °F 92.7 °F 53.6 °F 25% 29.92 in 6.2 mi SSE 4.6 mph - N/A   Partly Cloudy
7:00 PM 91.4 °F 89.4 °F 55.4 °F 29% 29.95 in 6.2 mi SE 4.6 mph - N/A   Partly Cloudy
8:00 PM 90 °F - 56 °F 21%  in 6 mi SE 5.8 mph - -   Scattered Clouds
8:00 PM 89.6 °F 87.7 °F 55.4 °F 31% 29.98 in 6.2 mi SE 5.8 mph - N/A   Partly Cloudy
9:00 PM 87.8 °F 86.1 °F 55.4 °F 33% 29.98 in 6.2 mi ESE 5.8 mph - N/A   Partly Cloudy
10:00 PM 86.0 °F 84.5 °F 55.4 °F 35% 30.01 in 6.2 mi ESE 9.2 mph - N/A   Partly Cloudy
11:00 PM 84.2 °F 83.0 °F 55.4 °F 37% 30.01 in 6.2 mi WNW 1.2 mph - N/A   Partly Cloudy